Вернуться в каталог

COSMOS 1823 DEB

АктивенLEO
NORAD 39827·DEBRIS·🇷🇺 Russia

Запущен Feb 20, 1987 с Plesetsk Cosmodrome

Loading…

Ближайшие Пролёты (ближайшие 24 часа)

TLE

СвежийSource: Space-Track

Эпоха: Sep 13, 2026, 08:58 UTC

1 39827U 87020FB  26256.37420492  .00000004  00000-0  15270-3 0  9990
2 39827  73.5949 270.7175 0027002 114.4473 245.9392 12.41969707557649

Отслеживайте COSMOS 1823 DEB в реальном времени с AllMySat

Download on the App Store